Location: *
(50.8512°N, 5.6907°E)
Time: 10:32:13
(UTC+00:00)

Cosmos 1934 Rocket - Pass Details

Date: 09 April 2020
Orbit: 937 x 1000 km, 83.0° (Epoch: 24 May)

Event Time Altitude Azimuth Distance (km) Brightness Sun altitude
Rises 22:01:51 0° 348° (NNW) 3,700 8.2 -27.5°
Reaches altitude 10° 22:04:25 10° 345° (NNW) 2,739 7.3 -27.7°
Maximum altitude 22:10:35 61° 267° (W) 1,090 4.2 -28.1°
Enters shadow 22:11:29 55° 230° (SW) 1,149 4.2 -28.2°
